Location: Newark
(22.3060°N, 114.2134°E)
Time: 01:06:51
(UTC+00:00)

Explorer 11/Cluster Stage 4 - Pass Details

Date: 03 August 2021
Orbit: 467 x 1256 km, 28.8° (Epoch: 27 September)

Event Time Altitude Azimuth Distance (km) Brightness Sun altitude
Rises 22:49:58 0° 242° (WSW) 3,541 9.3 11.1°
Reaches altitude 10° 22:52:23 10° 240° (WSW) 2,709 8.8 11.6°
Maximum altitude 22:59:09 74° 156° (SSE) 1,150 7.7 13.1°
Drops below altitude 10° 23:07:08 10° 73° (ENE) 3,172 12.6 14.9°
Sets 23:10:11 0° 72° (ENE) 4,178 12.1 15.6°
